OE3XOC-11 Weather Reports


time (UTC)temp
C
wind
direction
speed
KPH
gust
KPH
rain 1hr
cm
rain 24hr
cm
rain mn
cm
humidity
%
barometer
mb
20260507064742 14 0.0 0.0 0.00 0.00 0.00 59 957.4
20260507064242 14 0.0 0.0 0.00 0.00 0.00 59 957.4
20260507063742 14 0.0 0.0 0.00 0.00 0.00 60 957.5
20260507063242 14 0.0 0.0 0.00 0.00 0.00 60 957.5
20260507062742 14 0.0 0.0 0.00 0.00 0.00 61 957.5
20260507062242 14 0.0 0.0 0.00 0.00 0.00 61 957.5
20260507061742 14 0.0 0.0 0.00 0.00 0.00 61 957.4
20260507061242 13 0.0 0.0 0.00 0.00 0.00 62 957.4
20260507060742 13 0.0 0.0 0.00 0.00 0.00 62 957.3
20260507060242 13 0.0 0.0 0.00 0.00 0.00 63 957.3
20260507055742 13 0.0 0.0 0.00 0.00 0.00 62 957.4
20260507055242 14 0.0 0.0 0.00 0.00 0.00 62 957.4
20260507054742 13 0.0 0.0 0.00 0.00 0.00 61 957.3
20260507054242 13 0.0 0.0 0.00 0.00 0.00 62 957.4
20260507053742 14 0.0 0.0 0.00 0.00 0.00 60 957.3
20260507053242 13 0.0 0.0 0.00 0.00 0.00 62 957.2
20260507052742 13 0.0 0.0 0.00 0.00 0.00 64 957.1
20260507052242 13 0.0 0.0 0.00 0.00 0.00 65 956.9
20260507051742 13 0.0 0.0 0.00 0.00 0.00 65 956.9
20260507051242 13 0.0 0.0 0.00 0.00 0.00 65 956.8
20260507050742 13 0.0 0.0 0.00 0.00 0.00 64 956.8
20260507050242 13 0.0 0.0 0.00 0.00 0.00 65 956.8
20260507045742 13 0.0 0.0 0.00 0.00 0.00 65 956.8
20260507045243 13 0.0 0.0 0.00 0.00 0.00 66 956.7
20260507044742 13 0.0 0.0 0.00 0.00 0.00 65 956.6
20260507044242 13 0.0 0.0 0.00 0.00 0.00 65 956.6
20260507043742 13 0.0 0.0 0.00 0.00 0.00 65 956.5
20260507043242 13 0.0 0.0 0.00 0.00 0.00 64 956.5
20260507042742 13 0.0 0.0 0.00 0.00 0.00 65 956.5
20260507042242 13 0.0 0.0 0.00 0.00 0.00 65 956.5
20260507041742 13 0.0 0.0 0.00 0.00 0.00 64 956.4
20260507041242 14 0.0 0.0 0.00 0.00 0.00 61 956.4
20260507040742 14 0.0 0.0 0.00 0.00 0.00 62 956.2
20260507040242 14 0.0 0.0 0.00 0.00 0.00 62 956.3
20260507035314 13 0.0 0.0 0.00 0.00 0.00 63 956.2
20260507034814 13 0.0 0.0 0.00 0.00 0.00 63 956.2
20260507034314 14 0.0 0.0 0.00 0.00 0.00 63 956.1
20260507033814 14 0.0 0.0 0.00 0.00 0.00 62 956.1
20260507033314 13 0.0 0.0 0.00 0.00 0.00 64 956.1
20260507032814 14 0.0 0.0 0.00 0.00 0.00 63 955.9
20260507032314 14 0.0 0.0 0.00 0.00 0.00 63 955.9
20260507031814 14 0.0 0.0 0.00 0.00 0.00 62 955.9
20260507031314 13 0.0 0.0 0.00 0.00 0.00 63 955.9
20260507030814 14 0.0 0.0 0.00 0.00 0.00 62 956.0
20260507030314 14 0.0 0.0 0.00 0.00 0.00 61 955.9
20260507025814 14 0.0 0.0 0.00 0.00 0.00 61 955.9
20260507025314 14 0.0 0.0 0.00 0.00 0.00 61 955.9
20260507024814 14 0.0 0.0 0.00 0.00 0.00 61 955.8
20260507024314 14 0.0 0.0 0.00 0.00 0.00 60 955.8
20260507023814 14 0.0 0.0 0.00 0.00 0.00 60 955.7
20260507023314 14 0.0 0.0 0.00 0.00 0.00 60 955.7
20260507022814 14 0.0 0.0 0.00 0.00 0.00 60 955.7
20260507022314 14 0.0 0.0 0.00 0.00 0.00 61 955.8
20260507021814 14 0.0 0.0 0.00 0.00 0.00 60 955.8
20260507021314 15 0.0 0.0 0.00 0.00 0.00 60 955.7
20260507020814 15 0.0 0.0 0.00 0.00 0.00 60 955.7
20260507020314 15 0.0 0.0 0.00 0.00 0.00 61 955.7
20260507015814 15 0.0 0.0 0.00 0.00 0.00 61 955.7
20260507015314 14 0.0 0.0 0.00 0.00 0.00 62 955.5
20260507014814 14 0.0 0.0 0.00 0.00 0.00 62 955.5
20260507014314 14 0.0 0.0 0.00 0.00 0.00 63 955.5
20260507013814 15 0.0 0.0 0.00 0.00 0.00 62 955.5
20260507013314 14 0.0 0.0 0.00 0.00 0.00 63 955.2
20260507012814 15 0.0 0.0 0.00 0.00 0.00 63 955.2
20260507012314 15 0.0 0.0 0.00 0.00 0.00 62 955.3
20260507011814 15 0.0 0.0 0.00 0.00 0.00 63 955.2
20260507011314 15 0.0 0.0 0.00 0.00 0.00 65 955.1
20260507010814 15 0.0 0.0 0.00 0.00 0.00 66 954.9
20260507010314 14 0.0 0.0 0.00 0.00 0.00 67 955.0
20260507005814 14 0.0 0.0 0.00 0.00 0.00 68 954.7
20260507005314 15 0.0 0.0 0.00 0.00 0.00 67 954.8
20260507004814 15 0.0 0.0 0.00 0.00 0.00 67 954.7
20260507004314 15 0.0 0.0 0.00 0.00 0.00 67 954.7
20260507003814 15 0.0 0.0 0.00 0.00 0.00 66 954.8
20260507003314 15 0.0 0.0 0.00 0.00 0.00 67 954.7
20260507002814 15 0.0 0.0 0.00 0.00 0.00 68 954.7
20260507002315 15 0.0 0.0 0.00 0.00 0.00 68 954.9
20260507001814 15 0.0 0.0 0.00 0.00 0.00 67 954.8
20260507001314 15 0.0 0.0 0.00 0.00 0.00 65 954.8
20260507000814 15 0.0 0.0 0.00 0.00 0.00 66 954.8
20260507000314 15 0.0 0.0 0.00 0.00 0.00 67 954.7
20260506235814 15 0.0 0.0 0.00 0.00 0.00 66 954.8
20260506235314 15 0.0 0.0 0.00 0.00 0.00 66 954.7
20260506234814 15 0.0 0.0 0.00 0.00 0.00 67 954.4
20260506234314 15 0.0 0.0 0.00 0.00 0.00 66 954.5
20260506233814 15 0.0 0.0 0.00 0.00 0.00 66 954.6
20260506233314 15 0.0 0.0 0.00 0.00 0.00 67 954.2
20260506232814 15 0.0 0.0 0.00 0.00 0.00 67 954.3
20260506232314 15 0.0 0.0 0.00 0.00 0.00 68 954.3
20260506231814 16 0.0 0.0 0.00 0.00 0.00 66 954.2
20260506231314 16 0.0 0.0 0.00 0.00 0.00 67 954.0
20260506230814 16 0.0 0.0 0.00 0.00 0.00 67 953.8
20260506230314 16 0.0 0.0 0.00 0.00 0.00 68 953.5
20260506225814 16 0.0 0.0 0.00 0.00 0.00 70 953.7
20260506225314 15 0.0 0.0 0.00 0.00 0.00 71 953.6
20260506224814 16 0.0 0.0 0.00 0.00 0.00 71 953.3
20260506224314 16 0.0 0.0 0.00 0.00 0.00 71 953.5
20260506223814 16 0.0 0.0 0.00 0.00 0.00 71 953.4
20260506223314 16 0.0 0.0 0.00 0.00 0.00 71 953.3
20260506222814 16 0.0 0.0 0.00 0.00 0.00 70 953.1
20260506222314 16 0.0 0.0 0.00 0.00 0.00 69 953.0
20260506221814 16 0.0 0.0 0.00 0.00 0.00 68 952.8
20260506221314 16 0.0 0.0 0.00 0.00 0.00 65 952.9
20260506220814 16 0.0 0.0 0.00 0.00 0.00 65 952.8
20260506220314 16 0.0 0.0 0.00 0.00 0.00 62 952.7
20260506215814 17 0.0 0.0 0.00 0.00 0.00 61 952.5
20260506215314 17 0.0 0.0 0.00 0.00 0.00 60 952.6
20260506214814 17 0.0 0.0 0.00 0.00 0.00 59 952.3
20260506214314 17 0.0 0.0 0.00 0.00 0.00 59 952.4
20260506213814 17 0.0 0.0 0.00 0.00 0.00 58 952.1
20260506213314 17 0.0 0.0 0.00 0.00 0.00 57 952.2
20260506212814 17 0.0 0.0 0.00 0.00 0.00 56 952.0
20260506212314 17 0.0 0.0 0.00 0.00 0.00 55 951.8
20260506211814 17 0.0 0.0 0.00 0.00 0.00 55 951.8
20260506211314 18 0.0 0.0 0.00 0.00 0.00 51 951.9
20260506210814 19 0.0 0.0 0.00 0.00 0.00 46 951.6
20260506210314 21 0.0 0.0 0.00 0.00 0.00 39 951.7
20260506205814 21 0.0 0.0 0.00 0.00 0.00 38 951.6
20260506205314 22 0.0 0.0 0.00 0.00 0.00 36 951.4
20260506204814 22 0.0 0.0 0.00 0.00 0.00 35 951.3
20260506204314 22 0.0 0.0 0.00 0.00 0.00 35 951.2
20260506203814 23 0.0 0.0 0.00 0.00 0.00 34 951.1
20260506203314 23 0.0 0.0 0.00 0.00 0.00 34 951.0
20260506202814 22 0.0 0.0 0.00 0.00 0.00 35 951.0
20260506202314 22 0.0 0.0 0.00 0.00 0.00 35 951.0
20260506201814 22 0.0 0.0 0.00 0.00 0.00 36 950.9
20260506201314 22 0.0 0.0 0.00 0.00 0.00 37 950.8
20260506200814 22 0.0 0.0 0.00 0.00 0.00 37 950.8
20260506200314 22 0.0 0.0 0.00 0.00 0.00 36 950.8
20260506195814 22 0.0 0.0 0.00 0.00 0.00 35 950.7
20260506195314 22 0.0 0.0 0.00 0.00 0.00 35 950.7
20260506194814 22 0.0 0.0 0.00 0.00 0.00 36 950.6
20260506194314 22 0.0 0.0 0.00 0.00 0.00 36 950.5
20260506193814 22 0.0 0.0 0.00 0.00 0.00 35 950.4
20260506193314 23 0.0 0.0 0.00 0.00 0.00 36 950.3
20260506192814 22 0.0 0.0 0.00 0.00 0.00 35 950.2
20260506192314 22 0.0 0.0 0.00 0.00 0.00 36 950.2
20260506191814 22 0.0 0.0 0.00 0.00 0.00 36 950.1
20260506191314 22 0.0 0.0 0.00 0.00 0.00 35 950.1
20260506190814 22 0.0 0.0 0.00 0.00 0.00 36 950.0
20260506190314 22 0.0 0.0 0.00 0.00 0.00 36 949.9
20260506185814 22 0.0 0.0 0.00 0.00 0.00 35 949.8
20260506185314 23 0.0 0.0 0.00 0.00 0.00 35 949.9
20260506184814 23 0.0 0.0 0.00 0.00 0.00 34 949.8
20260506184314 23 0.0 0.0 0.00 0.00 0.00 35 949.8
20260506183814 23 0.0 0.0 0.00 0.00 0.00 34 949.9
20260506183314 23 0.0 0.0 0.00 0.00 0.00 35 949.7
20260506182814 23 0.0 0.0 0.00 0.00 0.00 34 949.6
20260506182314 23 0.0 0.0 0.00 0.00 0.00 34 949.5
20260506181814 23 0.0 0.0 0.00 0.00 0.00 35 949.4
20260506181314 23 0.0 0.0 0.00 0.00 0.00 35 949.4
20260506180814 23 0.0 0.0 0.00 0.00 0.00 35 949.3
20260506180314 23 0.0 0.0 0.00 0.00 0.00 35 949.3
20260506175814 23 0.0 0.0 0.00 0.00 0.00 34 949.4
20260506175314 23 0.0 0.0 0.00 0.00 0.00 34 949.3
20260506174814 23 0.0 0.0 0.00 0.00 0.00 33 949.2
20260506174314 23 0.0 0.0 0.00 0.00 0.00 34 949.1
20260506173814 23 0.0 0.0 0.00 0.00 0.00 34 949.1
20260506173314 23 0.0 0.0 0.00 0.00 0.00 34 949.3
20260506172814 25 0.0 0.0 0.00 0.00 0.00 33 949.3
20260506172314 25 0.0 0.0 0.00 0.00 0.00 33 949.2
20260506171814 24 0.0 0.0 0.00 0.00 0.00 34 949.2
20260506171314 24 0.0 0.0 0.00 0.00 0.00 34 949.3
20260506170814 24 0.0 0.0 0.00 0.00 0.00 33 949.3
20260506170314 25 0.0 0.0 0.00 0.00 0.00 33 949.3
20260506165814 25 0.0 0.0 0.00 0.00 0.00 32 949.3
20260506165314 25 0.0 0.0 0.00 0.00 0.00 32 949.2
20260506164814 25 0.0 0.0 0.00 0.00 0.00 32 949.2
20260506164314 25 0.0 0.0 0.00 0.00 0.00 33 949.3
20260506163814 25 0.0 0.0 0.00 0.00 0.00 32 949.3
20260506163314 25 0.0 0.0 0.00 0.00 0.00 32 949.4
20260506162814 26 0.0 0.0 0.00 0.00 0.00 31 949.4
20260506162314 26 0.0 0.0 0.00 0.00 0.00 31 949.4
20260506161814 26 0.0 0.0 0.00 0.00 0.00 30 949.5
20260506161314 27 0.0 0.0 0.00 0.00 0.00 27 949.7
20260506160814 26 0.0 0.0 0.00 0.00 0.00 26 949.7
20260506160314 27 0.0 0.0 0.00 0.00 0.00 25 949.7
20260506155814 27 0.0 0.0 0.00 0.00 0.00 25 949.8
20260506155314 27 0.0 0.0 0.00 0.00 0.00 25 949.7
20260506154814 27 0.0 0.0 0.00 0.00 0.00 24 949.7
20260506154314 27 0.0 0.0 0.00 0.00 0.00 25 949.7
20260506153814 27 0.0 0.0 0.00 0.00 0.00 25 949.8
20260506153314 27 0.0 0.0 0.00 0.00 0.00 25 949.8
20260506152814 28 0.0 0.0 0.00 0.00 0.00 24 949.8
20260506152314 27 0.0 0.0 0.00 0.00 0.00 25 949.8
20260506151814 28 0.0 0.0 0.00 0.00 0.00 24 949.8
20260506151314 27 0.0 0.0 0.00 0.00 0.00 24 949.8
20260506150814 27 0.0 0.0 0.00 0.00 0.00 25 949.8
20260506150314 26 0.0 0.0 0.00 0.00 0.00 25 949.9
20260506145814 27 0.0 0.0 0.00 0.00 0.00 24 949.9
20260506145314 27 0.0 0.0 0.00 0.00 0.00 24 949.9
20260506144814 27 0.0 0.0 0.00 0.00 0.00 25 950.0
20260506144314 27 0.0 0.0 0.00 0.00 0.00 25 949.9
20260506143814 27 0.0 0.0 0.00 0.00 0.00 24 950.0
20260506143314 27 0.0 0.0 0.00 0.00 0.00 24 950.0
20260506142814 27 0.0 0.0 0.00 0.00 0.00 24 950.0
20260506142314 27 0.0 0.0 0.00 0.00 0.00 24 950.0
20260506141814 27 0.0 0.0 0.00 0.00 0.00 24 950.0
20260506141314 27 0.0 0.0 0.00 0.00 0.00 25 950.0
20260506140814 27 0.0 0.0 0.00 0.00 0.00 24 950.1
20260506140314 27 0.0 0.0 0.00 0.00 0.00 24 950.1
20260506135814 27 0.0 0.0 0.00 0.00 0.00 25 950.2
20260506135314 27 0.0 0.0 0.00 0.00 0.00 24 950.2
20260506134814 27 0.0 0.0 0.00 0.00 0.00 25 950.1
20260506134314 26 0.0 0.0 0.00 0.00 0.00 25 950.2
20260506133814 27 0.0 0.0 0.00 0.00 0.00 26 950.2
20260506133314 27 0.0 0.0 0.00 0.00 0.00 27 950.3
20260506132814 26 0.0 0.0 0.00 0.00 0.00 28 950.2
20260506132314 26 0.0 0.0 0.00 0.00 0.00 28 950.2
20260506131814 26 0.0 0.0 0.00 0.00 0.00 28 950.2
20260506131314 26 0.0 0.0 0.00 0.00 0.00 28 950.3
20260506130814 26 0.0 0.0 0.00 0.00 0.00 28 950.4
20260506130314 26 0.0 0.0 0.00 0.00 0.00 30 950.5
20260506125814 26 0.0 0.0 0.00 0.00 0.00 31 950.6
20260506125314 25 0.0 0.0 0.00 0.00 0.00 31 950.5
20260506124814 25 0.0 0.0 0.00 0.00 0.00 31 950.6
20260506124314 25 0.0 0.0 0.00 0.00 0.00 31 950.7
20260506123814 25 0.0 0.0 0.00 0.00 0.00 31 950.6
20260506123314 24 0.0 0.0 0.00 0.00 0.00 32 950.6
20260506122814 24 0.0 0.0 0.00 0.00 0.00 32 950.7
20260506122314 25 0.0 0.0 0.00 0.00 0.00 32 950.8
20260506121814 25 0.0 0.0 0.00 0.00 0.00 33 951.0
20260506121314 24 0.0 0.0 0.00 0.00 0.00 34 951.0
20260506120814 24 0.0 0.0 0.00 0.00 0.00 33 951.0
20260506120314 24 0.0 0.0 0.00 0.00 0.00 34 951.1
20260506115814 24 0.0 0.0 0.00 0.00 0.00 35 951.2
20260506115314 23 0.0 0.0 0.00 0.00 0.00 34 951.2
20260506114814 23 0.0 0.0 0.00 0.00 0.00 35 951.2
20260506114314 23 0.0 0.0 0.00 0.00 0.00 35 951.2
20260506113814 23 0.0 0.0 0.00 0.00 0.00 35 951.3
20260506113314 23 0.0 0.0 0.00 0.00 0.00 35 951.4
20260506112814 23 0.0 0.0 0.00 0.00 0.00 35 951.4
20260506112314 23 0.0 0.0 0.00 0.00 0.00 36 951.5
20260506111814 23 0.0 0.0 0.00 0.00 0.00 36 951.5
20260506111314 23 0.0 0.0 0.00 0.00 0.00 37 951.4
20260506110814 23 0.0 0.0 0.00 0.00 0.00 37 951.5
20260506110314 23 0.0 0.0 0.00 0.00 0.00 37 951.6
20260506105814 23 0.0 0.0 0.00 0.00 0.00 37 951.7
20260506105314 23 0.0 0.0 0.00 0.00 0.00 37 951.8
20260506104814 23 0.0 0.0 0.00 0.00 0.00 38 951.8
20260506104314 23 0.0 0.0 0.00 0.00 0.00 38 951.9
20260506103814 23 0.0 0.0 0.00 0.00 0.00 38 952.1
20260506103314 23 0.0 0.0 0.00 0.00 0.00 38 952.2
20260506102814 23 0.0 0.0 0.00 0.00 0.00 38 952.4
20260506102314 23 0.0 0.0 0.00 0.00 0.00 38 952.3
20260506101814 23 0.0 0.0 0.00 0.00 0.00 38 952.5
20260506101314 23 0.0 0.0 0.00 0.00 0.00 38 952.4
20260506100814 23 0.0 0.0 0.00 0.00 0.00 38 952.5
20260506100314 23 0.0 0.0 0.00 0.00 0.00 37 952.5
20260506095814 23 0.0 0.0 0.00 0.00 0.00 36 952.5
20260506095314 23 0.0 0.0 0.00 0.00 0.00 37 952.7
20260506094814 23 0.0 0.0 0.00 0.00 0.00 36 952.5
20260506094314 23 0.0 0.0 0.00 0.00 0.00 37 952.7
20260506093814 23 0.0 0.0 0.00 0.00 0.00 36 952.8
20260506093314 23 0.0 0.0 0.00 0.00 0.00 36 952.7
20260506092814 23 0.0 0.0 0.00 0.00 0.00 35 953.0
20260506092314 24 0.0 0.0 0.00 0.00 0.00 35 953.2
20260506091814 23 0.0 0.0 0.00 0.00 0.00 36 953.2
20260506091314 23 0.0 0.0 0.00 0.00 0.00 37 953.1
20260506090814 23 0.0 0.0 0.00 0.00 0.00 36 953.3
20260506090314 23 0.0 0.0 0.00 0.00 0.00 37 953.3
20260506085814 23 0.0 0.0 0.00 0.00 0.00 36 953.5
20260506085314 24 0.0 0.0 0.00 0.00 0.00 35 953.5
20260506084814 23 0.0 0.0 0.00 0.00 0.00 35 953.3
20260506084314 23 0.0 0.0 0.00 0.00 0.00 37 953.3
20260506083814 23 0.0 0.0 0.00 0.00 0.00 37 953.3
20260506083314 23 0.0 0.0 0.00 0.00 0.00 36 953.4
20260506082814 24 0.0 0.0 0.00 0.00 0.00 37 953.5
20260506082314 24 0.0 0.0 0.00 0.00 0.00 37 953.5
20260506081814 24 0.0 0.0 0.00 0.00 0.00 37 953.7
20260506081314 24 0.0 0.0 0.00 0.00 0.00 36 953.7
20260506080814 24 0.0 0.0 0.00 0.00 0.00 37 953.7
20260506080314 23 0.0 0.0 0.00 0.00 0.00 38 953.8
20260506073146 23 0.0 0.0 0.00 0.00 0.00 38 954.0
20260506072646 23 0.0 0.0 0.00 0.00 0.00 39 954.1
20260506072146 23 0.0 0.0 0.00 0.00 0.00 38 954.1
20260506071646 23 0.0 0.0 0.00 0.00 0.00 39 954.1
20260506071146 23 0.0 0.0 0.00 0.00 0.00 39 954.1
20260506070646 22 0.0 0.0 0.00 0.00 0.00 40 954.2
20260506070146 23 0.0 0.0 0.00 0.00 0.00 40 954.2